User: anonymous
Location: Unspecified
(0.0000°N, 0.0000°E)
Time: 08:12:12
(UTC+00:00)
Language:

Aussat K2 - Orbit

View from above orbital plane
View from above orbital plane
View from above satellite
View from above satellite

Ground track
Ground track

The orbit data is extracted from the following two-line orbital elements,

1 16275U 85109C   14264.73737563 -.00000337  00000-0  00000+0 0  5193
2 16275 014.7082 019.4411 0006260 168.0738 190.4292 00.99941557 95248
Epoch (UTC): 21 September 2014 17:41:49
Eccentricity: 0.0006260
inclination: 14.7082°
perigee height: 35852 km
apogee height: 35905 km
right ascension of ascending node: 19.4411°
argument of perigee: 168.0738°
revolutions per day: 0.99941557
mean anomaly at epoch: 190.4292°
orbit number at epoch: 9524

The dashed part of the orbit path shows where the satellite is in the earth's shadow,  

DLR